TimeCDT,TemperatureF,Dew PointF,Humidity,Sea Level PressureIn,VisibilityMPH,Wind Direction,Wind SpeedMPH,Gust SpeedMPH,PrecipitationIn,Events,Conditions,WindDirDegrees,DateUTC
12:15 AM,57.0,55.8,96,30.06,10.0,Calm,Calm,-,N/A,,Clear,0,2013-09-04 05:15:00
12:35 AM,56.3,55.0,96,30.06,10.0,Calm,Calm,-,N/A,,Clear,0,2013-09-04 05:35:00
12:55 AM,56.3,54.7,94,30.06,10.0,Calm,Calm,-,N/A,,Clear,0,2013-09-04 05:55:00
1:15 AM,56.5,54.9,94,30.07,10.0,Calm,Calm,-,N/A,,Clear,0,2013-09-04 06:15:00
1:35 AM,55.8,54.7,96,30.08,10.0,Calm,Calm,-,N/A,,Clear,0,2013-09-04 06:35:00
1:55 AM,55.6,54.7,97,30.08,10.0,Calm,Calm,-,N/A,,Clear,0,2013-09-04 06:55:00
2:15 AM,55.4,54.5,97,30.08,7.0,Calm,Calm,-,N/A,,Clear,0,2013-09-04 07:15:00
2:35 AM,55.2,54.0,96,30.08,10.0,Calm,Calm,-,N/A,,Clear,0,2013-09-04 07:35:00
2:55 AM,54.5,53.6,97,30.09,10.0,Calm,Calm,-,N/A,,Clear,0,2013-09-04 07:55:00
3:15 AM,54.9,53.6,96,30.09,7.0,Calm,Calm,-,N/A,,Clear,0,2013-09-04 08:15:00
3:35 AM,54.5,53.2,96,30.10,10.0,Calm,Calm,-,N/A,,Clear,0,2013-09-04 08:35:00
3:55 AM,53.8,53.1,97,30.10,7.0,Calm,Calm,-,N/A,,Clear,0,2013-09-04 08:55:00
4:15 AM,54.0,53.1,97,30.11,7.0,Calm,Calm,-,N/A,,Scattered Clouds,0,2013-09-04 09:15:00
4:35 AM,54.3,53.6,97,30.11,1.8,Calm,Calm,-,N/A,,Overcast,0,2013-09-04 09:35:00
4:55 AM,54.5,53.8,97,30.11,4.0,Calm,Calm,-,N/A,,Overcast,0,2013-09-04 09:55:00
5:15 AM,54.5,53.8,97,30.11,5.0,Calm,Calm,-,N/A,,Scattered Clouds,0,2013-09-04 10:15:00
5:35 AM,53.1,52.7,99,30.11,5.0,Calm,Calm,-,N/A,,Mostly Cloudy,0,2013-09-04 10:35:00
5:55 AM,53.8,53.1,97,30.12,7.0,Calm,Calm,-,N/A,,Overcast,0,2013-09-04 10:55:00
6:15 AM,53.4,52.7,97,30.13,4.0,Calm,Calm,-,N/A,,Overcast,0,2013-09-04 11:15:00
6:35 AM,54.1,54.0,99,30.13,0.2,Calm,Calm,-,N/A,Fog,Fog,0,2013-09-04 11:35:00
7:15 AM,55.8,55.8,100,30.14,0.2,Calm,Calm,-,N/A,Fog,Fog,0,2013-09-04 12:15:00
7:35 AM,56.3,56.3,100,30.14,0.2,Calm,Calm,-,N/A,Fog,Fog,0,2013-09-04 12:35:00
7:55 AM,57.6,57.6,100,30.14,0.2,Calm,Calm,-,N/A,Fog,Fog,0,2013-09-04 12:55:00
8:15 AM,58.6,58.5,99,30.14,0.2,Calm,Calm,-,N/A,Fog,Fog,0,2013-09-04 13:15:00
8:35 AM,60.1,59.7,99,30.14,1.2,Calm,Calm,-,N/A,,Overcast,0,2013-09-04 13:35:00
8:55 AM,62.4,60.4,93,30.15,7.0,Calm,Calm,-,N/A,,Scattered Clouds,0,2013-09-04 13:55:00
9:15 AM,64.8,59.7,84,30.15,10.0,Calm,Calm,-,N/A,,Clear,0,2013-09-04 14:15:00
9:35 AM,67.6,59.0,74,30.15,10.0,WSW,3.5,-,N/A,,Clear,250,2013-09-04 14:35:00
9:55 AM,69.1,59.0,70,30.15,10.0,WNW,4.6,-,N/A,,Clear,290,2013-09-04 14:55:00
10:15 AM,71.1,58.5,64,30.16,10.0,WSW,5.8,-,N/A,,Clear,240,2013-09-04 15:15:00
10:35 AM,74.1,57.9,57,30.16,10.0,West,3.5,-,N/A,,Clear,280,2013-09-04 15:35:00
10:55 AM,74.8,56.1,52,30.16,10.0,West,5.8,-,N/A,,Clear,260,2013-09-04 15:55:00
11:15 AM,76.6,55.8,48,30.15,10.0,West,5.8,-,N/A,,Clear,280,2013-09-04 16:15:00
11:35 AM,77.0,55.4,47,30.15,10.0,West,5.8,-,N/A,,Clear,260,2013-09-04 16:35:00
11:55 AM,77.4,54.7,45,30.15,10.0,WSW,3.5,-,N/A,,Clear,250,2013-09-04 16:55:00
12:15 PM,78.4,55.0,44,30.14,10.0,Calm,Calm,-,N/A,,Clear,0,2013-09-04 17:15:00
12:35 PM,79.0,55.8,45,30.14,10.0,WNW,6.9,-,N/A,,Clear,300,2013-09-04 17:35:00
12:55 PM,79.7,55.4,43,30.14,10.0,WSW,8.1,-,N/A,,Clear,250,2013-09-04 17:55:00
1:15 PM,80.1,55.4,43,30.14,10.0,Calm,Calm,-,N/A,,Clear,0,2013-09-04 18:15:00
1:55 PM,81.1,55.0,41,30.14,10.0,NW,4.6,-,N/A,,Clear,310,2013-09-04 18:55:00
2:15 PM,83.1,55.8,39,30.13,10.0,NW,6.9,-,N/A,,Clear,320,2013-09-04 19:15:00
2:35 PM,82.8,54.1,37,30.13,10.0,NNW,5.8,-,N/A,,Clear,340,2013-09-04 19:35:00
2:55 PM,83.7,52.9,34,30.12,10.0,NNW,6.9,-,N/A,,Clear,330,2013-09-04 19:55:00
3:15 PM,83.3,53.4,36,30.12,10.0,West,5.8,-,N/A,,Clear,260,2013-09-04 20:15:00
3:35 PM,83.3,53.8,36,30.11,10.0,WSW,6.9,-,N/A,,Clear,240,2013-09-04 20:35:00
3:55 PM,83.7,54.7,37,30.11,10.0,NW,5.8,-,N/A,,Clear,310,2013-09-04 20:55:00
4:15 PM,83.1,54.0,37,30.10,10.0,Calm,Calm,-,N/A,,Clear,0,2013-09-04 21:15:00
4:35 PM,83.3,54.0,36,30.10,10.0,Calm,Calm,-,N/A,,Clear,0,2013-09-04 21:35:00
4:55 PM,83.3,54.0,36,30.10,10.0,West,5.8,-,N/A,,Clear,280,2013-09-04 21:55:00
5:15 PM,83.7,53.8,36,30.09,10.0,Calm,Calm,-,N/A,,Clear,0,2013-09-04 22:15:00
5:35 PM,82.9,54.5,37,30.09,10.0,West,3.5,-,N/A,,Clear,260,2013-09-04 22:35:00
5:55 PM,82.4,54.5,38,30.10,10.0,WSW,4.6,-,N/A,,Clear,250,2013-09-04 22:55:00
6:15 PM,81.9,55.4,40,30.10,10.0,West,3.5,-,N/A,,Clear,270,2013-09-04 23:15:00
6:35 PM,81.0,56.5,43,30.10,10.0,Calm,Calm,-,N/A,,Clear,0,2013-09-04 23:35:00
6:55 PM,77.9,57.9,50,30.10,10.0,Calm,Calm,-,N/A,,Clear,0,2013-09-04 23:55:00
7:15 PM,73.2,60.4,64,30.10,10.0,Calm,Calm,-,N/A,,Clear,0,2013-09-05 00:15:00
7:35 PM,70.5,60.6,71,30.10,10.0,Calm,Calm,-,N/A,,Clear,0,2013-09-05 00:35:00
7:55 PM,68.9,59.7,72,30.10,10.0,Calm,Calm,-,N/A,,Clear,0,2013-09-05 00:55:00
8:15 PM,68.7,59.4,72,30.11,10.0,Calm,Calm,-,N/A,,Clear,0,2013-09-05 01:15:00
8:35 PM,67.1,59.9,78,30.11,10.0,Calm,Calm,-,N/A,,Clear,0,2013-09-05 01:35:00
8:55 PM,66.4,58.1,75,30.11,10.0,Calm,Calm,-,N/A,,Clear,0,2013-09-05 01:55:00
9:15 PM,65.8,58.3,77,30.12,10.0,Calm,Calm,-,N/A,,Clear,0,2013-09-05 02:15:00
9:35 PM,64.4,59.0,83,30.12,10.0,Calm,Calm,-,N/A,,Clear,0,2013-09-05 02:35:00
9:55 PM,64.6,58.3,80,30.12,10.0,Calm,Calm,-,N/A,,Clear,0,2013-09-05 02:55:00
10:15 PM,63.5,58.8,85,30.12,10.0,Calm,Calm,-,N/A,,Clear,0,2013-09-05 03:15:00
10:35 PM,63.0,59.0,87,30.12,10.0,Calm,Calm,-,N/A,,Clear,0,2013-09-05 03:35:00
10:55 PM,62.8,58.5,86,30.12,10.0,Calm,Calm,-,N/A,,Clear,0,2013-09-05 03:55:00
11:15 PM,62.4,58.3,86,30.12,10.0,Calm,Calm,-,N/A,,Clear,0,2013-09-05 04:15:00
11:35 PM,61.3,58.5,90,30.12,10.0,Calm,Calm,-,N/A,,Clear,0,2013-09-05 04:35:00
11:55 PM,62.1,58.6,89,30.13,10.0,Calm,Calm,-,N/A,,Clear,0,2013-09-05 04:55:00